This demonstration page uses our WeatherBlox Daily Observations layout. Learn more.

Left ArrowRight Arrow

40.92945, -100.16068

Hourly Observations for November 21, 2020

Temp ( °F °C ) Dew Point ( °F °C ) Humidity (%) Winds ( mph kmh ) Pressure ( in mb ) Visibility ( mi km ) Precip ( " mm )
12:15 am 00:15 Mostly Cloudy 38 3.3 28 -2 69 69 NNE 6 9 30.57 1035 10 16.0934 0 0
12:35 am 00:35 Mostly Cloudy 36 2.4 28 -2.2 72 72 NE 7 11 30.57 1035 10 16.0934 0 0
12:55 am 00:55 Mostly Cloudy 36 2.1 29 -1.6 77 77 NE 7 11 30.58 1035 10 16.0934 0 0
1:15 am 01:15 Cloudy 35 1.8 29 -1.4 80 80 NE 6 9 30.58 1036 10 16.0934 0 0
1:35 am 01:35 Mostly Cloudy 36 2 31 -0.6 83 83 NE 7 11 30.58 1036 10 16.0934 0 0
1:55 am 01:55 Partly Cloudy 36 2.3 32 -0.2 84 84 NE 6 9 30.57 1035 10 16.0934 0 0
2:15 am 02:15 Partly Cloudy 37 2.5 32 0 84 84 ENE 5 7 30.56 1035 10 16.0934 0 0
2:35 am 02:35 Partly Cloudy 36 2.3 32 0 85 85 E 5 7 30.56 1035 10 16.0934 0 0
2:55 am 02:55 Clear 36 2 32 0 87 87 Calm 30.56 1035 10 16.0934 0 0
3:15 am 03:15 Clear 36 2 32 0 87 87 Calm 30.56 1035 10 16.0934 0 0
3:35 am 03:35 Partly Cloudy 37 2.5 32 0 84 84 E 3 6 30.55 1035 10 16.0934 0 0
3:55 am 03:55 Clear 37 2.5 32 0 84 84 ESE 5 7 30.55 1035 10 16.0934 0 0
4:15 am 04:15 Clear 37 2.5 32 0 84 84 E 5 7 30.55 1035 10 16.0934 0 0
4:35 am 04:35 Partly Cloudy 36 2.3 32 0 85 85 Calm 30.56 1035 10 16.0934 0 0
4:55 am 04:55 Clear 36 2.2 32 0 86 86 E 5 7 30.55 1034 10 16.0934 0 0
5:15 am 05:15 Clear 35 1.8 32 0 88 88 E 3 6 30.55 1035 10 16.0934 0 0
5:35 am 05:35 Clear 35 1.6 32 -0.1 89 89 ENE 3 6 30.55 1035 10 16.0934 0 0
5:55 am 05:55 Clear 33 0.6 31 -0.6 92 92 Calm 30.56 1035 10 16.0934 0 0
6:15 am 06:15 Mostly Cloudy 32 0.1 31 -0.8 94 94 NE 6 9 30.57 1035 10 16.0934 0 0
6:35 am 06:35 Mostly Cloudy 33 0.7 32 -0.1 94 94 E 7 11 30.55 1035 10 16.0934 0 0
6:55 am 06:55 Mostly Cloudy 34 1.1 32 0 92 92 E 7 11 30.55 1034 10 16.0934 0 0
7:15 am 07:15 Mostly Cloudy 34 1.2 32 0 92 92 E 8 13 30.54 1034 10 16.0934 0 0
7:35 am 07:35 Partly Cloudy 34 1 32 -0.1 92 92 ESE 8 13 30.54 1034 10 16.0934 0 0
7:55 am 07:55 Sunny 34 1 32 -0.1 92 92 E 6 9 30.54 1034 7 11.26538 0 0
8:15 am 08:15 Sunny 34 1 32 -0.2 92 92 ESE 6 9 30.54 1034 7 11.26538 0 0
8:35 am 08:35 Sunny 34 1 32 -0.2 92 92 ESE 6 9 30.53 1034 7 11.26538 0 0
8:55 am 08:55 Sunny 34 1.3 32 -0.1 91 91 ESE 8 13 30.53 1034 7 11.26538 0 0
9:15 am 09:15 Partly Cloudy 36 2 32 0 87 87 SE 7 11 30.53 1034 7 11.26538 0 0
9:35 am 09:35 Cloudy 36 2.3 32 0 85 85 SE 7 11 30.53 1034 7 11.26538 0 0
9:55 am 09:55 Cloudy 37 2.9 32 0.2 83 83 SE 7 11 30.51 1033 10 16.0934 0 0
10:15 am 10:15 Cloudy 40 4.2 33 0.3 76 76 SE 8 13 30.5 1033 10 16.0934 0 0
10:35 am 10:35 Cloudy 40 4.6 32 0 72 72 SE 10 17 30.48 1032 10 16.0934 0 0
10:55 am 10:55 Cloudy 42 5.5 32 0 68 68 SE 12 19 30.47 1032 10 16.0934 0 0
11:15 am 11:15 Cloudy 42 5.7 31 -0.5 65 65 SE 9 15 30.47 1032 10 16.0934 0 0
11:35 am 11:35 Cloudy 42 5.7 31 -0.6 64 64 SSE 13 20 30.46 1032 10 16.0934 0 0
11:55 am 11:55 Cloudy 42 5.6 31 -0.3 66 66 SSE 10 17 30.45 1031 10 16.0934 0 0
12:15 pm 12:15 Cloudy 42 5.7 31 -0.4 65 65 SSE 12 19 30.44 1031 10 16.0934 0 0
12:35 pm 12:35 Cloudy 43 6 32 -0.2 65 65 SSE 10 17 30.42 1030 10 16.0934 0 0
12:55 pm 12:55 Cloudy 43 6.2 32 -0.2 64 64 S 8 13 30.41 1030 10 16.0934 0 0
1:15 pm 13:15 Cloudy 44 6.6 31 -0.4 61 61 SSE 9 15 30.39 1029 10 16.0934 0 0
1:35 pm 13:35 Cloudy 45 7.1 31 -0.5 59 59 SSE 10 17 30.38 1029 10 16.0934 0 0
1:55 pm 13:55 Cloudy 47 8.3 31 -0.7 53 53 SSE 10 17 30.37 1028 10 16.0934 0 0
2:15 pm 14:15 Cloudy 46 8 29 -1.6 51 51 SE 12 19 30.35 1028 10 16.0934 0 0
2:35 pm 14:35 Cloudy 47 8.3 30 -1.3 51 51 SSE 16 26 30.35 1028 10 16.0934 0 0
2:55 pm 14:55 Mostly Cloudy 47 8.3 30 -0.9 53 53 S 16 26 30.33 1027 10 16.0934 0 0
3:15 pm 15:15 Sunny 47 8.2 31 -0.5 55 55 SSE 15 24 30.33 1027 10 16.0934 0 0
3:35 pm 15:35 Sunny 46 8 32 -0.1 57 57 S 15 24 30.33 1027 10 16.0934 0 0
3:55 pm 15:55 Sunny 46 8 32 0 57 57 SSE 9 15 30.33 1027 10 16.0934 0 0
4:15 pm 16:15 Sunny 46 7.8 33 0.4 60 60 SSE 10 17 30.33 1027 10 16.0934 0 0
4:35 pm 16:35 Sunny 46 7.5 33 0.5 62 62 SSE 8 13 30.33 1027 10 16.0934 0 0
4:55 pm 16:55 Sunny 44 6.9 33 0.3 63 63 SSE 8 13 30.34 1027 10 16.0934 0 0
5:15 pm 17:15 Sunny 42 5.6 32 0.1 68 68 SSE 7 11 30.35 1028 10 16.0934 0 0
5:35 pm 17:35 Clear 40 4.2 32 0 74 74 SSE 5 7 30.37 1028 10 16.0934 0 0
5:55 pm 17:55 Partly Cloudy 39 3.8 32 -0.1 76 76 SSE 5 7 30.37 1028 10 16.0934 0 0
6:15 pm 18:15 Cloudy 40 4.2 32 0.1 75 75 S 5 7 30.37 1028 10 16.0934 0 0
6:35 pm 18:35 Cloudy 40 4.6 33 0.5 75 75 SSE 9 15 30.35 1028 10 16.0934 0 0
6:55 pm 18:55 Cloudy 40 4.7 32 0.2 73 73 SSE 8 13 30.35 1028 10 16.0934 0 0
7:15 pm 19:15 Cloudy 40 4.7 32 0 72 72 SSE 7 11 30.36 1028 10 16.0934 0 0
7:35 pm 19:35 Cloudy 40 4.5 32 0 73 73 SSE 8 13 30.36 1028 10 16.0934 0 0
7:55 pm 19:55 Cloudy 39 4 32 0 75 75 SSE 8 13 30.37 1028 10 16.0934 0 0
8:15 pm 20:15 Cloudy 39 4 32 0 75 75 SSE 5 7 30.38 1029 10 16.0934 0 0
8:35 pm 20:35 Cloudy 39 4 32 0 75 75 SSE 6 9 30.38 1029 10 16.0934 0 0
8:55 pm 20:55 Mostly Cloudy 38 3.4 32 0 79 79 SSE 6 9 30.38 1029 10 16.0934 0 0
9:15 pm 21:15 Partly Cloudy 37 2.5 31 -0.5 81 81 SSE 8 13 30.38 1029 10 16.0934 0 0
9:35 pm 21:35 Clear 35 1.6 31 -0.7 85 85 SSE 9 15 30.39 1029 10 16.0934 0 0
9:55 pm 21:55 Partly Cloudy 34 1.3 31 -0.8 86 86 SSE 6 9 30.41 1030 10 16.0934 0 0
10:15 pm 22:15 Partly Cloudy 32 0 29 -1.5 90 90 S 3 6 30.42 1030 10 16.0934 0 0
10:35 pm 22:35 Partly Cloudy 33 0.3 30 -1 91 91 Calm 30.43 1030 10 16.0934 0 0
10:55 pm 22:55 Partly Cloudy 32 0.1 29 -1.5 89 89 S 6 9 30.43 1030 10 16.0934 0 0
11:15 pm 23:15 Clear 31 -0.7 28 -2.1 90 90 SSE 5 7 30.44 1031 10 16.0934 0 0
11:35 pm 23:35 Clear 30 -0.9 28 -2.2 91 91 SSE 3 6 30.44 1031 10 16.0934 0 0
11:55 pm 23:55 Clear 31 -0.8 29 -1.8 93 93 Calm 30.44 1031 10 16.0934 0 0

Powered by AerisWeather